Weather History for Hyannis, MA

Change the Weather History Date:

Friday, February 3, 2012

  Actual Average Record
Temperature  
Mean Temperature 31 °F -  
Max Temperature 35 °F 40 °F 57 °F (1999)
Min Temperature 27 °F 23 °F 0 °F (1961)
Degree Days  
Heating Degree Days 34    
Moisture  
Dew Point 19 °F    
Average Humidity 61    
Maximum Humidity 75    
Minimum Humidity 40    
Precipitation  
Precipitation 0.00 in - - ()
Sea Level Pressure  
Sea Level Pressure 30.26 in    
Wind  
Wind Speed 12 mph (NNW)    
Max Wind Speed 17 mph    
Max Gust Speed 28 mph    
Visibility 10 miles    
Events Snow    
Averages and records for this station are not official NWS values.
T = Trace of Precipitation, MM = Missing Value Source: NWS Daily Summary

Daily Weather History Graph

Daily Weather History Graph

Search for Another Location

Airport:

Trip Planner

Search our weather history database for the weather conditions in past years. The results will help you decide how hot, cold, wet, or windy it might be!

Date:

Astronomy

Feb. 03, 2012 Rise Set
Actual Time 6:51 AM EST 4:58 PM EST
Civil Twilight 6:22 AM EST 5:27 PM EST
Nautical Twilight 5:49 AM EST 6:01 PM EST
Astronomical Twilight 5:16 AM EST 6:33 PM EST
Moon 12:55 PM EST (2/3) 3:26 AM EST (2/3)
Length of Visible Light 11h 05m
Length of Day
10h 07m
Waxing Gibbous, 81% of the Moon is Illuminated
Feb 3
Waxing Gibbous
Feb 7
Full
Feb 14
Last Quarter
Feb 21
New
Feb 29
First Quarter

Hourly Weather History & Observations

Time (EST) Temp. Windchill Dew Point Humidity Pressure Visibility Wind Dir Wind Speed Gust Speed Precip Events Conditions
12:20 AM 33.8 °F 24.8 °F 24.8 °F 70% 30.12 in 10.0 mi North 12.7 mph 21.9 mph N/A   Overcast
12:28 AM 33.8 °F 24.3 °F 26.6 °F 75% 30.12 in 10.0 mi NNE 13.8 mph 20.7 mph N/A   Overcast
12:56 AM 33.1 °F 22.6 °F 25.0 °F 72% 30.13 in 9.0 mi NNE 16.1 mph 25.3 mph 0.00 in   Overcast
1:56 AM 33.1 °F 22.6 °F 24.1 °F 70% 30.16 in 10.0 mi North 16.1 mph 27.6 mph 0.00 in   Overcast
2:56 AM 32.0 °F 20.8 °F 23.0 °F 69% 30.17 in 10.0 mi North 17.3 mph 26.5 mph 0.00 in   Overcast
3:56 AM 30.9 °F 20.2 °F 23.0 °F 72% 30.19 in 9.0 mi North 15.0 mph 25.3 mph 0.00 in Snow Light Snow
4:56 AM 30.9 °F 21.7 °F 21.9 °F 69% 30.21 in 10.0 mi North 11.5 mph 24.2 mph 0.00 in   Overcast
5:56 AM 30.9 °F 21.7 °F 21.9 °F 69% 30.25 in 10.0 mi North 11.5 mph 19.6 mph N/A   Overcast
6:56 AM 30.9 °F 21.7 °F 21.0 °F 67% 30.27 in 10.0 mi North 11.5 mph 21.9 mph N/A   Overcast
7:56 AM 30.9 °F 20.2 °F 19.9 °F 64% 30.30 in 10.0 mi North 15.0 mph 20.7 mph N/A   Overcast
8:56 AM 30.0 °F 20.0 °F 19.9 °F 66% 30.31 in 10.0 mi NNW 12.7 mph 17.3 mph N/A   Overcast
9:56 AM 30.0 °F 19.5 °F 21.0 °F 69% 30.32 in 10.0 mi NW 13.8 mph 21.9 mph N/A   Overcast
10:56 AM 30.0 °F 20.0 °F 21.0 °F 69% 30.33 in 10.0 mi NNW 12.7 mph 20.7 mph N/A   Overcast
11:56 AM 30.9 °F 21.2 °F 19.0 °F 61% 30.32 in 10.0 mi NW 12.7 mph 18.4 mph N/A   Overcast
12:17 PM 32.0 °F 21.6 °F 19.4 °F 60% 30.30 in 10.0 mi NNW 15.0 mph 19.6 mph N/A   Scattered Clouds
12:56 PM 32.0 °F 22.5 °F 18.0 °F 56% 30.30 in 10.0 mi North 12.7 mph 20.7 mph N/A   Clear
1:56 PM 34.0 °F 27.2 °F 19.9 °F 56% 30.28 in 10.0 mi North 8.1 mph - N/A   Clear
2:56 PM 34.0 °F 27.2 °F 17.1 °F 50% 30.29 in 10.0 mi NNW 8.1 mph - N/A   Clear
3:56 PM 34.0 °F 27.2 °F 16.0 °F 48% 30.28 in 10.0 mi North 8.1 mph 16.1 mph N/A   Clear
4:56 PM 34.0 °F 28.8 °F 14.0 °F 44% 30.30 in 10.0 mi NNW 5.8 mph - N/A   Clear
5:56 PM 35.1 °F 30.1 °F 12.9 °F 40% 30.31 in 10.0 mi NW 5.8 mph - N/A   Clear
6:56 PM 33.1 °F 28.7 °F 16.0 °F 50% 30.31 in 10.0 mi WNW 4.6 mph - N/A   Clear
7:56 PM 30.9 °F - 12.9 °F 47% 30.31 in 10.0 mi Calm Calm - N/A   Clear
8:56 PM 27.0 °F - 15.1 °F 61% 30.29 in 10.0 mi Calm Calm - N/A   Clear
9:56 PM 30.9 °F 27.5 °F 12.9 °F 47% 30.29 in 10.0 mi West 3.5 mph - N/A   Clear
10:56 PM 30.9 °F 26.2 °F 16.0 °F 54% 30.28 in 10.0 mi WSW 4.6 mph - N/A   Clear
11:56 PM 32.0 °F 26.4 °F 18.0 °F 56% 30.26 in 10.0 mi WSW 5.8 mph - N/A   Clear